#timestamp,LO_Frequency,Hit,StdDev 
1620936015.6,286047006.1,N
1620936035.4,286047005.7,N
1620936055.3,286047001.1,N
1620936075.1,286047005.9,N
1620936095.8,286047006.1,N
1620936115.7,286047011.3,N
1620936135.5,286047013.6,N
1620936155.4,286047012.2,N
1620936175.2,286047008.4,N
1620936195.0,286047008.5,N
1620936195.9,286047008.5,N
1620936215.8,286047006.5,N
1620936235.6,286047008.6,N
1620936255.5,286047003.8,N
1620936275.3,286046999.2,N
1620936295.1,286047002.5,N
1620936315.9,286047000.2,N
1620936335.7,286047003.6,N
1620936355.5,286047010.4,N
1620936375.4,286047008.8,N
1620936395.2,286047007.7,N
1620936415.1,286047008.9,N
1620936416.0,286047008.9,N
1620936435.8,286047010.4,N
1620936455.6,286047010.7,N
1620936475.5,286047007.9,N
1620936495.3,286047008.1,N
1620936515.2,286047004.2,N
1620936535.9,286047008.6,N
1620936555.7,286047008.6,N
1620936575.6,286047009.3,N
1620936595.4,286047006.5,N
1620936615.2,286047006.1,N
1620936635.1,286046999.7,N
1620936636.0,286046999.7,N
1620936655.8,286046997.9,N
1620936675.7,286046998.8,N
1620936695.5,286047004.2,N
1620936715.3,286047003.7,N
1620936735.2,286047003.6,N
1620936755.0,286047004.4,N
1620936755.9,286047004.4,N
1620936775.8,286047004.0,N
1620936795.6,286047000.2,N
1620936815.4,286047004.8,N
1620936835.3,286047007.0,N
1620936855.1,286047005.4,N
1620936875.8,286047000.8,N
1620936895.7,286047005.5,N
1620936915.5,286047003.8,N
1620936935.4,286047009.1,N
1620936955.2,286047011.2,Y
1620936975.0,286047010.3,P
1620936975.9,286047010.3,P
1620936995.8,286047006.8,N
1620937015.6,286047010.6,Y
1620937035.5,286046993.3,P
1620937055.3,286046989.5,N
1620937075.1,286046989.3,N
1620937095.9,286046994.6,N
1620937115.7,286046997.9,N
1620937135.5,286046994.3,N
1620937155.4,286046994.4,N
1620937175.2,286046995.8,N
1620937195.1,286046992.5,N
1620937196.0,286046992.5,N
1620937215.8,286046994.2,N
1620937235.6,286046987.0,N
1620937255.5,286046988.7,N
1620937275.3,286046991.0,N
1620937295.2,286046989.8,N
1620937315.9,286046989.7,N
1620937335.7,286046989.8,N
1620937355.6,286046987.5,N
1620937375.4,286046991.0,N
1620937395.2,286046989.8,N
1620937415.1,286046980.7,Y
1620937416.0,286046980.7,P
1620937435.8,286046991.4,N
1620937455.7,286046995.4,N
1620937475.5,286046997.7,N
1620937495.3,286046997.3,N
1620937515.2,286046999.4,N
1620937535.0,286047010.2,N
1620937535.9,286047010.2,N
1620937555.7,286047012.1,N
1620937575.6,286047004.7,N
1620937595.4,286047005.7,N
1620937615.3,286047011.8,N
1620937635.1,286047010.1,N
1620937655.8,286047001.3,N
1620937675.7,286047002.9,N
1620937695.5,286047009.8,N
1620937715.4,286047011.1,N
1620937735.2,286047013.6,N
1620937755.0,286047014.4,N
1620937755.9,286047014.4,N
1620937775.8,286047018.3,N
1620937795.6,286047017.6,N
1620937815.4,286047014.7,N
1620937835.3,286047020.5,N
1620937855.1,286047019.8,N
1620937875.9,286047016.1,N
1620937895.7,286047016.1,N
1620937915.5,286047011.8,N
1620937935.4,286047008.3,N
1620937955.2,286047011.8,N
1620937975.0,286047009.4,N
1620937976.0,286047009.4,N
1620937995.8,286047006.1,N
1620938015.6,286047004.7,N
1620938035.5,286047004.8,N
1620938055.3,286047012.6,N
1620938075.1,286047016.8,Y
1620938095.9,286047005.5,P
1620938115.7,286047010.5,P
1620938135.6,286047011.9,P
1620938155.4,286047011.0,Y
1620938175.2,286047004.2,P
1620938195.1,286046999.2,N
1620938196.0,286046999.2,N
1620938215.8,286047001.4,N
1620938235.7,286047002.4,N
1620938255.5,286047000.8,N
1620938275.3,286047002.5,N
1620938295.2,286047000.1,N
1620938315.9,286046999.7,N
1620938335.7,286047002.5,N
1620938355.6,286046998.8,N
1620938375.4,286047003.0,N
1620938395.3,286046992.6,N
1620938415.1,286047001.7,N
1620938416.0,286047001.7,N
1620938435.8,286047002.6,N
1620938455.7,286046994.9,N
1620938475.5,286046988.4,Y
1620938495.4,286046986.8,P
1620938515.2,286046988.2,N
1620938535.0,286046989.9,N
1620938535.9,286046989.9,N
1620938555.8,286046986.6,N
1620938575.6,286046986.6,N
1620938595.5,286046987.4,N
1620938615.3,286046997.1,N
1620938635.1,286046999.5,N
1620938655.9,286046993.3,N
1620938675.7,286046994.1,N
1620938695.6,286046994.8,N
1620938715.4,286046991.3,N
1620938735.2,286046984.0,Y
1620938755.1,286046993.8,P
1620938756.0,286046993.8,P
1620938775.8,286047000.5,N
1620938795.7,286047001.0,N
1620938815.5,286047007.0,N
1620938835.3,286047000.7,N
1620938855.2,286046993.9,N
1620938875.0,286046986.9,N
1620938875.9,286046986.9,N
1620938895.8,286046983.7,N
1620938915.6,286046982.6,N
1620938935.4,286046981.3,N
1620938955.3,286046984.4,N
1620938975.1,286046980.9,N
1620938995.8,286046978.9,N
1620939015.7,286046979.0,N
1620939035.5,286046979.1,N
1620939055.4,286046980.4,N
1620939075.2,286046984.9,N
1620939095.0,286046987.1,N
1620939096.0,286046987.1,N
1620939115.8,286046993.2,N
1620939135.6,286046991.8,N
1620939155.5,286046996.1,N
1620939175.3,286046995.6,N
1620939195.2,286046997.9,N
1620939215.9,286046990.4,N
1620939235.7,286046986.5,N
1620939255.6,286046979.8,N
1620939275.4,286046982.3,N
1620939295.3,286046981.8,N
1620939315.1,286046983.7,N
1620939316.0,286046983.7,N
1620939335.8,286046993.4,N
1620939355.7,286046998.0,N
1620939375.5,286046999.4,N
1620939395.4,286047000.9,N
1620939415.2,286046989.4,N
1620939435.0,286046986.7,N
1620939435.9,286046986.7,N
1620939455.8,286046984.4,N
1620939475.6,286046982.4,N
1620939495.5,286046980.9,N
1620939515.3,286046988.8,N
1620939535.1,286046986.2,N
1620939555.9,286046991.8,N
1620939575.7,286046997.4,N
1620939595.5,286046990.4,N
